Vorticity
nan nan nan nan nan nan nan nan nan nan nan nan nan nan nan nan nan nan nan nan nan nan nan nan nan nan nan nan nan nan nan nan nan nan nan nan nan nan nan nan nan nan nan nan nan nan nan nan nan nan nan nan nan nan nan nan nan nan nan nan nan nan nan nan nan nan nan nan nan
nan 7 6 7 10 11 10 8 8 7 9 10 10 10 10 10 9 9 8 8 8 7 8 7 4 4 4 8 10 10 9 10 13 17 18 15 9 6 7 8 7 8 9 12 13 13 10 10 13 13 11 9 8 8 9 9 10 10 9 8 10 12 13 13 10 10 12 16 nan
nan 8 8 9 9 8 8 7 5 5 9 12 11 10 10 10 9 8 8 6 5 8 9 7 5 6 8 11 9 8 8 9 12 13 11 6 4 5 8 9 9 10 12 13 12 9 7 10 13 13 11 8 7 8 9 10 9 9 10 12 13 12 11 10 9 12 14 14 nan
nan 8 9 8 7 7 7 6 3 6 12 13 10 9 10 10 9 8 6 5 8 10 9 6 7 8 9 7 5 7 7 8 8 10 9 6 5 7 10 10 11 13 13 12 9 8 8 12 14 12 10 8 10 11 10 7 7 10 11 13 11 10 9 8 9 11 11 10 nan
nan 9 9 8 7 7 7 5 6 10 13 12 9 8 8 9 8 7 6 8 9 7 5 7 9 7 4 3 6 8 9 9 10 11 9 7 8 9 9 10 11 12 12 10 9 10 11 15 15 11 10 10 11 9 7 5 9 11 11 10 9 9 8 8 9 9 8 7 nan
nan 8 9 8 7 7 8 6 8 11 12 9 6 6 7 8 6 4 5 7 7 6 7 11 11 7 5 7 10 11 11 11 10 8 7 9 10 8 8 10 11 11 10 10 10 13 14 16 14 10 9 9 9 8 6 8 11 10 8 6 8 8 8 7 9 9 7 3 nan
nan 8 8 7 8 9 8 9 11 11 11 8 5 6 7 6 4 5 9 10 10 10 11 12 8 7 7 10 10 9 9 8 7 7 10 11 8 7 8 9 10 10 10 11 13 14 14 15 12 9 8 10 10 9 9 9 8 6 5 5 7 8 9 10 10 8 6 3 nan
nan 9 9 9 8 8 8 11 12 11 11 8 5 5 6 7 9 12 14 13 11 9 10 7 3 5 9 10 8 8 8 8 8 9 11 9 7 7 8 10 10 10 11 13 12 11 12 14 12 9 9 11 10 9 8 7 5 5 5 7 8 8 9 9 7 5 4 6 nan
nan 9 10 9 8 9 10 11 12 12 11 7 5 6 6 9 14 16 16 12 8 8 8 5 4 7 10 10 10 9 9 10 10 9 9 7 7 8 9 10 10 10 12 12 10 10 13 14 11 8 8 8 6 5 5 6 6 6 9 12 10 8 6 5 3 3 5 8 nan
nan 10 11 9 7 9 11 12 13 12 12 9 7 7 7 11 16 16 14 9 6 6 7 6 7 9 10 11 11 10 10 10 10 8 8 7 7 9 11 10 9 9 10 9 10 12 15 14 9 6 6 6 5 5 6 7 8 9 10 11 7 5 4 3 5 7 9 10 nan
nan 10 10 8 7 9 11 13 14 13 11 8 7 9 10 11 12 11 10 8 6 6 8 9 9 10 11 12 10 9 9 9 7 7 7 8 9 9 10 9 8 9 8 8 11 13 15 11 7 6 6 5 8 10 10 9 10 10 9 6 5 5 7 7 9 11 13 11 nan
nan 9 9 8 8 10 11 13 14 11 8 7 9 10 11 9 7 8 9 9 9 10 11 10 10 11 12 10 7 7 8 7 6 7 8 9 10 11 11 10 10 10 9 11 12 13 11 8 7 7 8 8 11 11 10 9 10 10 9 7 7 8 9 9 10 11 10 9 nan
nan 8 8 8 8 10 12 13 13 9 6 6 9 10 10 7 6 9 11 12 12 13 10 9 10 11 10 7 7 7 7 7 8 9 9 10 11 11 12 12 11 11 12 13 13 10 8 7 7 9 10 11 10 8 8 10 10 10 10 9 9 9 8 9 9 8 7 7 nan
nan 9 9 8 9 11 12 12 12 8 5 6 9 9 10 8 8 10 13 12 11 11 9 9 10 9 6 5 7 7 8 9 9 10 10 10 11 11 12 12 11 11 12 12 11 9 9 9 9 10 11 11 9 8 9 11 11 11 10 10 9 9 9 9 9 9 9 9 nan
nan 8 9 9 10 11 11 11 11 7 5 7 9 9 10 9 9 10 11 11 10 11 9 8 7 6 5 7 8 9 11 12 11 11 11 11 11 11 11 10 10 11 11 10 10 11 11 11 11 11 11 11 10 11 11 12 11 11 10 10 9 9 9 9 10 10 10 10 nan
nan 8 9 10 10 10 11 11 9 6 6 7 8 9 10 11 10 8 8 10 12 9 6 5 8 8 8 8 10 12 14 14 12 12 12 11 10 10 10 10 10 10 10 10 10 11 12 12 13 12 11 11 11 11 12 12 12 12 11 10 10 10 10 10 10 11 10 10 nan
nan 9 10 9 9 10 11 10 8 6 5 6 8 10 11 12 10 7 7 10 10 6 4 7 10 9 8 8 11 13 14 12 11 11 10 10 9 10 11 11 11 11 12 12 12 12 12 13 14 14 14 14 13 13 13 14 14 13 13 12 13 13 13 13 13 13 13 13 nan
nan 10 9 8 9 9 9 9 8 7 7 8 10 10 10 11 9 8 7 8 7 6 6 10 11 9 8 8 10 11 10 9 8 8 8 9 11 12 13 14 15 15 16 16 16 17 19 21 22 22 21 19 17 16 16 16 15 15 15 16 17 18 18 18 18 17 16 15 nan
nan 9 9 8 9 9 8 8 9 10 10 11 10 9 9 10 10 9 8 7 6 7 9 11 11 9 8 9 10 10 10 10 8 8 9 11 13 14 15 18 19 19 20 21 23 26 29 33 34 32 29 25 23 21 20 19 19 20 21 21 22 22 22 21 20 19 17 15 nan
nan 9 9 8 9 9 8 9 10 10 11 10 9 10 10 11 11 10 9 8 7 9 10 11 10 9 9 10 10 11 13 11 8 9 11 12 12 13 16 19 21 22 25 27 29 30 33 36 37 37 34 30 29 28 28 27 27 27 27 24 20 18 17 17 16 15 14 12 nan
nan 10 9 9 9 9 9 10 10 10 10 10 11 11 11 12 11 11 10 9 9 10 10 11 10 10 10 10 10 12 13 10 8 9 11 11 10 13 16 18 20 23 29 32 28 23 21 22 25 26 26 24 25 28 29 28 26 25 23 19 14 11 10 11 11 11 11 11 nan
nan 11 10 11 10 8 9 10 10 10 11 12 11 11 11 12 11 11 11 10 10 11 11 12 11 11 11 11 10 11 12 9 8 10 11 10 10 11 14 15 16 22 30 33 23 12 6 7 11 12 13 11 12 15 18 18 15 12 10 10 10 9 8 9 10 11 11 12 nan
nan 11 12 12 10 8 9 11 11 11 12 11 11 11 12 11 11 11 11 11 10 11 13 13 11 11 11 11 10 10 10 9 9 9 10 10 10 11 14 14 15 21 26 26 18 11 7 5 5 7 8 6 4 5 7 9 9 7 5 6 8 8 9 9 10 11 11 13 nan
nan 12 13 12 10 10 10 10 11 11 11 11 10 11 11 11 11 11 11 10 11 12 14 13 10 10 11 11 10 10 10 9 9 9 9 10 11 13 16 17 17 21 19 13 13 21 26 20 11 9 9 8 5 4 4 5 7 7 6 6 8 8 8 8 9 11 11 14 nan
nan 11 12 11 12 11 11 10 11 11 11 10 10 10 10 10 11 11 10 11 11 12 13 12 11 11 11 10 10 10 10 10 9 9 9 10 11 14 18 19 19 20 11 1 4 22 33 35 29 22 15 9 7 6 5 3 4 7 7 7 7 8 7 7 8 10 11 13 nan
nan 11 11 12 12 12 11 11 11 10 10 9 9 9 10 11 11 10 10 11 12 13 13 12 9 8 11 11 9 10 12 11 9 9 9 9 9 13 17 21 21 17 3 -2 5 14 20 26 33 33 28 16 9 9 7 3 2 5 6 6 7 8 8 6 6 8 11 10 nan
nan 10 11 11 11 11 12 11 10 10 9 9 8 9 10 11 10 9 10 12 13 15 14 11 8 8 13 11 7 9 12 11 9 9 9 8 9 11 15 20 20 16 0 -1 10 14 15 16 22 29 33 25 13 10 9 6 3 5 5 5 6 7 8 7 6 7 8 8 nan
nan 10 11 10 10 11 11 10 9 9 9 9 9 9 9 10 10 10 11 12 14 15 13 10 10 12 12 7 5 7 10 11 11 9 8 7 9 10 13 17 15 10 1 3 11 13 14 16 17 22 29 31 20 10 7 7 6 7 6 5 4 6 8 9 7 6 6 8 nan
nan 10 11 11 11 10 9 9 9 9 9 9 9 9 9 10 9 10 11 12 13 14 15 12 10 9 7 5 7 8 9 11 11 9 6 6 8 9 9 12 12 7 -2 3 10 10 11 13 16 19 24 32 29 16 8 6 7 7 7 6 4 5 8 9 8 6 6 8 nan
nan 11 11 10 10 10 9 9 9 9 10 9 8 9 9 9 9 10 11 13 14 12 13 10 7 6 6 8 10 10 10 10 9 8 6 6 7 8 9 10 11 7 -1 0 5 6 7 9 12 15 20 28 31 23 12 7 8 8 8 6 4 6 8 8 7 6 8 9 nan
nan 13 12 9 9 10 10 9 9 9 10 9 8 9 9 9 10 11 12 13 12 9 9 9 8 8 9 11 10 9 9 9 8 8 7 6 6 8 10 9 7 5 2 2 4 4 5 6 8 11 15 25 30 24 15 10 9 9 8 5 5 7 10 10 7 4 5 9 nan
nan 13 11 9 10 11 10 9 9 9 9 9 9 9 9 10 12 12 11 11 10 9 10 10 8 9 10 11 10 9 9 9 7 7 7 8 8 8 10 10 5 -2 -0 4 6 4 4 5 6 8 11 21 26 21 16 13 12 10 8 6 6 8 11 11 6 3 5 10 nan
nan 11 11 10 11 12 10 9 9 9 9 9 9 9 9 11 12 10 10 11 11 11 11 9 9 10 11 11 10 9 9 8 7 6 7 9 9 8 11 13 5 -10 -6 8 12 6 4 5 7 8 10 18 21 14 12 14 13 9 7 6 7 8 8 9 7 5 5 10 nan
nan 11 11 11 11 11 10 9 9 8 8 9 9 9 10 11 10 11 10 11 13 13 11 10 10 11 12 12 10 8 7 7 8 7 8 10 9 8 12 14 2 -16 -9 12 19 9 5 6 8 10 12 17 18 10 7 10 11 7 6 6 7 7 8 8 7 6 6 9 nan
nan 11 11 11 11 11 10 9 9 8 8 8 8 9 10 11 12 11 8 8 13 15 12 10 9 9 11 12 9 6 6 8 9 8 8 9 9 8 9 10 -1 -16 -9 10 21 14 9 8 9 12 16 18 15 8 6 7 8 6 6 7 6 7 8 9 8 6 6 7 nan
nan 10 10 10 10 10 10 9 8 8 8 8 9 10 11 13 13 10 6 9 14 13 11 10 9 9 11 13 10 7 7 9 9 8 7 9 10 10 8 7 -0 -12 -11 1 16 18 16 11 10 14 19 18 13 9 8 8 7 5 6 8 7 7 8 9 8 7 7 6 nan
nan 9 9 9 10 10 11 10 8 7 8 9 10 11 11 13 13 10 7 11 13 9 10 11 9 9 11 12 11 9 6 7 8 7 6 9 11 10 8 7 3 -6 -11 -6 8 15 20 16 13 16 20 17 11 9 9 9 8 7 8 9 9 9 11 10 8 6 5 2 nan
nan 8 8 8 9 10 11 10 8 8 8 11 12 11 11 12 11 9 6 11 13 9 10 11 9 8 8 10 9 8 8 9 8 8 8 9 9 8 8 9 5 -2 -10 -9 1 8 17 19 18 20 23 18 11 8 9 9 9 9 9 10 10 10 12 12 9 6 2 -7 nan
nan 8 8 8 9 9 10 9 8 9 10 12 11 9 11 12 10 7 7 12 13 10 9 9 7 7 7 10 12 9 9 9 9 9 10 8 4 4 9 12 6 -1 -10 -9 -1 4 11 17 22 24 24 19 12 9 8 8 9 10 11 11 11 11 12 12 11 7 3 -9 nan
nan 9 8 8 8 9 9 9 10 11 11 10 9 10 10 10 9 8 10 13 11 10 10 8 6 7 6 10 13 10 9 9 9 8 8 7 2 1 11 14 7 0 -7 -9 -3 3 6 12 21 27 29 20 10 9 8 8 8 9 11 11 11 11 11 11 11 9 7 -1 nan
nan nan nan nan nan nan nan nan nan nan nan nan nan nan nan nan nan nan nan nan nan nan nan nan nan nan nan nan nan nan nan nan nan nan nan nan nan nan nan nan nan nan nan nan nan nan nan nan nan nan nan nan nan nan nan nan nan nan nan nan nan nan nan nan nan nan nan nan nan
CAPE
nan nan nan 0 5 5 1 1 9 9 6 2 2 2 2 3 3 3 3 4 5 4 4 3 4 4 4 2 3 3 5 7 8 44 44 44 15 3 3 1 0 1 1 4 6 6 7 6 5 5 2 2 3 2 2 4 5 3 3 2 1 5 5 12 11 11 8 6 9
nan nan nan nan 3 3 1 2 3 3 3 1 2 2 2 3 4 2 2 2 2 3 3 3 3 1 1 2 8 8 10 13 23 47 47 30 6 1 1 0 0 3 3 5 6 6 7 8 7 7 5 3 2 2 2 3 3 3 3 1 3 7 7 8 5 5 5 6 6
nan nan nan nan nan nan nan 0 nan nan nan 1 1 3 3 3 2 2 2 1 1 2 2 2 1 2 2 5 9 9 13 22 35 31 31 9 0 nan nan 0 2 10 10 12 5 5 5 7 17 17 26 8 4 3 3 2 6 3 3 3 2 4 4 4 3 3 4 3 3
nan nan nan nan nan nan nan 0 nan nan nan 1 1 1 1 1 2 2 2 1 1 2 2 1 1 8 8 10 12 12 17 38 36 12 12 0 0 0 0 2 8 8 8 8 6 6 5 9 20 20 20 9 5 4 4 4 5 4 4 2 2 3 3 3 3 3 2 1 1
nan nan nan nan nan nan nan 0 nan nan nan 0 0 1 1 0 1 1 1 1 2 2 2 2 5 13 13 13 14 14 18 27 44 3 3 0 1 2 2 6 9 13 13 11 9 9 7 6 16 16 11 7 6 3 3 2 2 3 3 3 2 1 1 1 1 1 2 2 2
nan nan nan nan nan nan 0 0 nan nan nan nan nan nan nan 0 1 1 1 1 1 3 3 10 19 22 22 11 10 10 15 7 8 2 2 2 4 4 4 6 7 10 10 10 9 9 8 7 9 9 5 4 2 2 2 1 1 1 1 1 0 1 1 0 0 0 1 1 0
nan nan nan nan 0 0 0 0 nan nan nan 0 0 nan nan 1 1 1 1 0 0 4 4 19 13 9 9 5 8 8 6 1 nan 1 1 2 2 2 2 3 4 5 5 7 7 7 7 8 6 6 7 12 3 0 0 0 nan nan nan nan nan nan nan nan 0 0 1 0 0
nan nan nan nan 0 0 0 0 nan nan 0 1 0 1 1 1 2 1 1 0 2 7 7 9 3 3 3 2 4 4 0 nan nan 0 0 nan 0 1 1 1 0 1 1 2 4 4 4 6 3 3 2 4 2 nan nan nan nan nan nan nan nan nan nan nan nan nan nan 0 1
nan nan nan 0 0 0 0 0 0 0 1 1 1 2 2 3 1 nan nan 0 5 5 5 2 0 0 0 nan nan nan nan nan nan nan nan nan nan nan nan nan nan nan nan nan 1 1 3 3 2 2 1 0 nan nan nan nan nan nan nan nan nan nan nan nan nan nan nan nan 0
nan nan nan 0 1 1 0 nan 1 1 1 1 2 2 2 20 2 nan nan 1 5 1 1 0 nan nan nan nan nan nan nan nan nan nan nan nan nan nan nan nan nan nan nan nan 0 0 1 1 0 0 nan nan nan nan nan nan nan nan nan nan nan nan nan nan nan nan nan 0 nan
nan 0 0 0 0 0 2 0 1 1 2 1 2 1 1 10 1 nan nan 1 0 nan nan nan nan nan nan nan nan nan nan nan nan nan nan nan nan nan nan nan nan nan nan nan nan nan nan nan nan nan nan nan nan nan nan nan nan nan nan nan nan nan nan nan nan nan nan nan nan
0 0 0 0 0 0 0 0 1 1 1 1 1 0 0 nan nan nan nan nan nan nan nan nan nan nan nan nan nan nan nan nan nan nan nan nan nan nan nan nan nan nan nan nan nan nan nan nan nan nan nan nan nan nan nan nan nan nan nan nan nan nan nan nan nan nan nan nan 0
0 0 0 0 nan nan nan nan 1 1 1 1 0 nan nan nan nan nan nan nan nan nan nan nan nan nan nan nan nan nan nan nan nan nan nan nan nan nan nan nan nan nan nan nan nan nan nan nan nan nan nan nan nan nan nan nan nan nan nan nan nan nan nan nan nan nan nan nan nan
0 0 0 nan nan nan nan nan 0 0 0 0 nan nan nan nan nan nan nan nan nan nan nan nan nan nan nan nan nan nan nan nan nan nan nan nan nan nan nan nan nan nan nan nan nan nan nan nan nan nan nan nan nan nan nan nan nan nan nan nan nan nan nan nan nan nan nan nan nan
nan 0 0 nan nan nan nan nan nan nan 0 0 nan nan nan nan nan nan nan nan nan nan nan nan nan nan nan nan nan nan nan nan nan nan nan nan nan nan nan nan nan nan nan nan nan nan nan nan nan nan nan nan nan nan nan nan nan nan nan nan nan nan nan nan nan nan nan nan nan
nan nan nan nan nan nan nan nan nan nan 0 0 nan nan nan nan nan nan nan nan nan nan nan nan nan nan nan nan nan nan nan nan nan nan nan nan nan nan nan nan nan nan nan nan nan nan nan nan nan nan nan nan nan nan nan nan nan nan nan nan nan nan nan nan nan nan nan nan nan
nan nan nan nan nan nan nan nan nan nan nan 0 nan nan nan nan nan nan nan nan nan nan nan nan nan nan nan nan nan nan nan nan nan nan nan nan nan nan nan nan nan nan nan nan nan nan nan nan nan nan nan nan nan nan nan nan nan nan nan nan nan nan nan nan nan nan nan nan 1
nan nan nan nan nan nan nan nan nan nan nan nan nan nan nan nan nan nan nan nan nan nan nan nan nan nan nan nan nan nan nan nan nan nan nan nan nan nan nan nan nan nan nan nan nan nan nan nan nan nan nan nan nan nan nan nan nan nan nan nan nan nan nan nan nan nan 0 0 0
nan nan nan nan nan nan nan nan nan nan nan nan nan nan nan nan nan nan nan nan nan nan nan nan nan nan nan nan nan nan nan nan nan nan nan nan nan nan nan nan nan nan nan nan nan nan nan nan nan nan nan nan nan nan nan nan nan nan nan nan nan 0 0 0 0 0 nan nan nan
nan nan nan nan nan nan nan nan nan nan nan nan nan nan nan nan nan nan nan nan nan nan nan nan nan nan nan nan nan nan nan nan nan nan nan nan nan nan nan nan nan nan nan nan nan nan nan nan nan nan nan nan nan nan nan nan nan nan nan 1 5 3 3 1 nan nan nan nan nan
nan nan nan nan nan nan nan nan nan nan nan nan nan nan nan nan nan nan nan nan nan nan nan nan nan nan nan nan nan nan nan nan nan nan nan nan nan nan nan nan nan nan nan nan nan nan nan nan nan nan 0 nan 1 0 0 2 7 5 5 1 nan nan nan nan nan nan nan nan nan
nan nan nan nan nan nan nan nan nan nan nan nan nan nan nan nan nan nan nan nan nan nan nan nan nan nan nan nan nan nan nan nan nan nan nan nan nan nan nan nan nan nan nan nan nan nan nan nan nan nan 0 nan nan 1 1 0 nan nan nan nan nan nan nan nan nan nan nan nan nan
nan nan nan nan nan nan nan nan nan nan nan nan nan nan nan nan nan nan nan nan nan nan nan nan nan nan nan nan nan nan nan nan nan nan nan nan nan nan nan nan nan nan nan 12 7 7 nan nan nan nan nan nan nan nan nan 0 nan nan nan nan nan nan nan nan nan nan nan nan nan
nan nan nan nan nan nan nan nan nan nan nan nan nan nan nan nan nan nan nan nan nan nan nan nan nan nan nan nan nan nan nan nan nan nan nan nan nan nan nan nan nan nan nan 24 92 92 79 3 nan nan 0 1 1 nan nan nan nan nan nan nan nan nan nan nan nan nan nan nan nan
nan nan nan nan nan nan nan nan nan nan nan nan nan nan nan nan nan nan nan nan nan nan nan nan nan nan nan nan nan nan nan nan nan nan nan nan nan nan nan nan nan 8 8 28 433 433 496 226 15 15 0 0 1 nan nan nan nan nan nan nan nan nan nan nan nan nan nan nan nan
nan nan nan nan nan nan nan nan nan nan nan nan nan nan nan nan nan nan nan nan nan nan nan nan nan nan nan nan nan nan nan nan nan nan nan nan nan nan nan nan nan 3 3 71 281 281 345 366 165 165 7 nan nan nan nan nan nan nan nan nan nan nan nan nan nan nan nan nan nan
nan nan nan nan 0 0 nan nan nan nan nan nan nan nan nan nan nan nan nan nan nan nan nan nan nan nan nan nan nan nan nan nan nan nan nan nan nan nan nan nan nan 7 7 76 218 218 225 247 187 187 24 nan nan nan nan nan nan nan nan nan nan nan nan nan nan nan nan nan nan
nan nan nan nan nan nan nan nan nan nan nan nan nan nan nan nan nan nan nan nan nan nan nan nan nan nan nan nan nan nan nan nan nan nan nan nan nan nan nan nan nan 72 72 121 165 165 155 148 107 107 37 1 nan nan nan nan nan nan nan nan nan nan nan nan nan nan nan nan nan
nan nan nan nan nan nan nan nan nan nan nan nan nan nan nan nan nan nan nan nan nan nan nan nan nan nan nan nan nan nan nan nan nan nan nan nan nan nan nan nan nan 130 130 157 119 119 99 81 60 60 39 4 nan nan nan nan nan nan nan nan nan nan nan nan nan nan nan nan nan
nan nan nan nan nan nan nan nan nan nan nan nan nan nan nan nan nan nan nan nan nan nan nan nan nan nan nan nan nan nan nan nan nan nan nan nan nan nan nan nan nan 113 113 151 104 104 69 46 40 40 33 3 nan nan nan nan nan nan nan nan nan nan nan nan nan nan nan nan nan
nan nan nan nan nan nan nan nan nan nan nan nan nan nan nan nan nan nan nan nan nan nan nan nan nan nan nan nan nan nan nan nan nan nan nan nan nan nan nan nan nan 143 143 175 93 93 70 54 37 37 24 1 nan nan nan nan nan nan nan nan nan nan nan nan nan nan nan nan nan
nan nan nan nan nan nan nan nan nan nan nan nan nan nan nan nan nan nan nan nan nan nan nan nan nan nan nan nan nan nan nan nan nan nan nan nan nan nan nan nan nan 206 206 282 129 129 77 59 40 40 21 0 nan nan nan nan nan nan nan nan nan nan nan nan nan nan nan nan nan
nan nan nan nan nan nan nan nan nan nan nan nan nan nan nan nan nan nan nan nan nan nan nan nan nan nan nan nan nan nan nan nan nan nan nan nan nan nan nan nan nan 303 303 405 192 192 105 65 42 42 19 0 nan nan nan nan nan nan nan nan nan nan nan nan nan nan nan nan nan
nan nan nan nan nan nan nan nan nan nan nan nan nan nan nan nan nan nan nan nan nan nan nan nan nan nan nan nan nan nan nan nan nan nan nan nan nan nan nan nan nan 250 250 477 281 281 167 77 44 44 11 nan nan nan nan nan nan nan nan nan nan nan nan nan nan nan nan nan nan
nan nan nan nan nan nan nan nan nan nan nan nan nan nan nan nan nan nan nan nan nan nan nan nan nan nan nan nan nan nan nan nan nan nan nan nan nan nan nan nan nan 111 111 518 394 394 221 107 47 47 4 nan nan nan nan nan nan nan nan nan nan nan nan nan nan nan nan nan nan
nan nan nan nan nan nan nan nan nan nan nan nan nan nan nan nan nan nan nan nan nan nan nan nan nan nan nan nan nan nan nan nan nan nan nan nan nan nan nan nan nan 36 36 482 499 499 311 152 55 55 1 nan nan nan nan nan nan nan nan nan nan nan nan nan nan nan nan nan nan
nan nan nan nan nan nan nan nan nan nan nan nan nan nan nan nan nan nan nan nan nan nan nan nan nan nan nan nan nan nan nan nan nan nan nan nan nan nan nan nan nan nan nan 358 551 551 435 221 74 74 nan nan nan nan nan nan nan nan nan nan nan nan nan nan nan nan nan nan nan
nan nan nan nan nan nan nan nan nan nan nan nan nan nan nan nan nan nan nan nan nan nan nan nan nan nan nan nan nan nan nan nan nan nan nan nan nan nan nan nan nan nan nan 206 446 446 483 352 109 109 nan nan nan nan nan nan nan nan nan nan nan nan nan nan nan nan nan nan 2
nan nan nan nan nan nan nan nan nan nan nan nan nan nan nan nan nan nan nan nan nan nan nan nan nan nan nan nan nan nan nan nan nan nan nan nan nan nan nan nan nan nan nan 127 334 334 451 456 198 198 9 nan nan nan nan nan nan nan nan nan nan nan nan nan nan nan nan nan 26
nan nan nan nan nan nan nan nan nan nan nan nan nan nan nan nan nan nan nan nan nan nan nan nan nan nan nan nan nan nan nan nan nan nan nan nan nan nan nan nan nan nan nan 103 271 271 343 439 328 328 43 nan nan nan nan nan nan nan nan nan nan nan nan nan nan nan nan nan 19
nan nan nan nan nan nan nan nan nan nan nan nan nan nan nan nan nan nan nan nan nan nan nan nan nan nan nan nan nan nan nan nan nan nan nan nan nan nan nan nan nan nan nan 20 248 248 289 362 427 427 143 nan nan nan nan nan nan nan nan nan nan nan nan nan nan nan nan nan nan